Location: Newark
(7.1028°S, 35.3258°W)
Time: 06:33:06
(UTC+00:00)

Vanguard 3 - Pass Details

Date: 19 February 2020
Orbit: 508 x 3263 km, 33.4° (Epoch: 07 April)

Event Time Altitude Azimuth Distance (km) Brightness Sun altitude
Rises 02:03:07 0° 251° (WSW) 6,589 12.0 -69.7°
Reaches altitude 10° 02:10:43 10° 232° (SW) 4,989 11.3 -70.4°
Enters shadow 02:13:53 14° 220° (SW) 4,399 11.0 -70.6°
Maximum altitude 02:17:53 16° 200° (SSW) 3,835 - -70.9°
Drops below altitude 10° 02:23:25 10° 166° (SSE) 3,675 - -71.2°
Sets 02:27:36 0° 143° (SE) 4,152 - -71.3°
